When you browse on this site, cookies collect data to enhance your experience and personalize the content and advertising you see.
Visit our Privacy Policy to learn more. By continuing to use the site, you agree to this use of cookies and data.
  • In Österreich
  • Länderverzeichnis
  • Für 7 Tage
  • Wassertemperatur
  • Wetterkarte
  • News
  • Widgets
  • user-avatar
    Anmelden

    Stündliche Wetter Altach

    Heute, 19 September, Donnerstag

    Zeit Temperatur Niederschläge Wind Luftdruck Luftfeuchtigkeit
    00:00 +12°C° 0 mm 1 m/S 727 mmHg 88%
    01:00 +11°C° 0 mm 1 m/S 727 mmHg 92%
    02:00 +10°C° 0 mm 1 m/S 726 mmHg 92%
    03:00 +10°C° 0 mm 1 m/S 726 mmHg 93%
    04:00 +9°C° 0 mm 1 m/S 726 mmHg 94%
    05:00 +10°C° 0 mm 1 m/S 726 mmHg 93%
    06:00 +10°C° 0 mm 1 m/S 726 mmHg 92%
    07:00 +10°C° 0 mm 1 m/S 727 mmHg 91%
    08:00 +12°C° 0 mm 1 m/S 727 mmHg 83%
    09:00 +14°C° 0 mm 2 m/S 727 mmHg 75%
    10:00 +16°C° 0 mm 2 m/S 727 mmHg 66%
    11:00 +17°C° 0 mm 2 m/S 727 mmHg 62%
    12:00 +18°C° 0 mm 3 m/S 727 mmHg 57%
    13:00 +19°C° 0 mm 3 m/S 727 mmHg 53%
    14:00 +19°C° 0 mm 3 m/S 727 mmHg 55%
    15:00 +18°C° 0 mm 3 m/S 727 mmHg 57%
    16:00 +18°C° 0 mm 4 m/S 727 mmHg 59%
    17:00 +16°C° 0 mm 3 m/S 727 mmHg 68%
    18:00 +14°C° 0 mm 2 m/S 727 mmHg 77%
    19:00 +11°C° 0 mm 1 m/S 727 mmHg 86%
    20:00 +11°C° 0 mm 1 m/S 727 mmHg 87%
    21:00 +10°C° 0 mm 1 m/S 728 mmHg 88%
    22:00 +10°C° 0 mm 1 m/S 728 mmHg 90%
    23:00 +10°C° 0 mm 1 m/S 728 mmHg 90%

    Morgen, 20 September, Freitag

    Zeit Temperatur Niederschläge Wind Luftdruck Luftfeuchtigkeit
    00:00 +9°C° 0 mm 1 m/S 728 mmHg 90%
    01:00 +9°C° 0 mm 1 m/S 728 mmHg 90%
    02:00 +9°C° 0 mm 1 m/S 728 mmHg 90%
    03:00 +9°C° 0 mm 1 m/S 728 mmHg 90%
    04:00 +9°C° 0 mm 1 m/S 727 mmHg 90%
    05:00 +8°C° 0 mm 0 m/S 727 mmHg 90%
    06:00 +8°C° 0 mm 0 m/S 727 mmHg 89%
    07:00 +9°C° 0 mm 0 m/S 727 mmHg 88%
    08:00 +12°C° 0 mm 1 m/S 728 mmHg 79%
    09:00 +15°C° 0 mm 1 m/S 728 mmHg 70%
    10:00 +18°C° 0 mm 1 m/S 728 mmHg 61%
    11:00 +19°C° 0 mm 1 m/S 727 mmHg 58%
    12:00 +19°C° 0 mm 2 m/S 727 mmHg 55%
    13:00 +20°C° 0 mm 2 m/S 727 mmHg 53%
    14:00 +20°C° 0 mm 2 m/S 727 mmHg 54%
    15:00 +20°C° 0 mm 2 m/S 726 mmHg 55%
    16:00 +20°C° 0 mm 2 m/S 726 mmHg 57%
    17:00 +17°C° 0 mm 2 m/S 726 mmHg 66%
    18:00 +15°C° 0 mm 1 m/S 726 mmHg 75%
    19:00 +13°C° 0 mm 1 m/S 726 mmHg 85%
    20:00 +12°C° 0 mm 1 m/S 726 mmHg 86%
    21:00 +12°C° 0 mm 1 m/S 726 mmHg 88%
    22:00 +12°C° 0 mm 1 m/S 726 mmHg 89%
    23:00 +12°C° 0 mm 1 m/S 726 mmHg 90%

    übermorgen, 21 September, Samstag

    Zeit Temperatur Niederschläge Wind Luftdruck Luftfeuchtigkeit
    00:00 +12°C° 0 mm 1 m/S 726 mmHg 90%
    01:00 +11°C° 0 mm 1 m/S 726 mmHg 90%
    02:00 +11°C° 0 mm 1 m/S 726 mmHg 89%
    03:00 +11°C° 0 mm 1 m/S 725 mmHg 89%
    04:00 +11°C° 0 mm 1 m/S 725 mmHg 88%
    05:00 +12°C° 0 mm 1 m/S 725 mmHg 86%
    06:00 +12°C° 0 mm 1 m/S 725 mmHg 85%
    07:00 +12°C° 0 mm 1 m/S 725 mmHg 83%
    08:00 +15°C° 0 mm 1 m/S 725 mmHg 74%
    09:00 +19°C° 0 mm 1 m/S 725 mmHg 66%
    10:00 +22°C° 0 mm 1 m/S 725 mmHg 57%
    11:00 +23°C° 0 mm 1 m/S 725 mmHg 54%
    12:00 +24°C° 0 mm 1 m/S 725 mmHg 51%
    13:00 +25°C° 0 mm 1 m/S 724 mmHg 49%
    14:00 +25°C° 0 mm 1 m/S 724 mmHg 52%
    15:00 +25°C° 0 mm 1 m/S 723 mmHg 54%
    16:00 +24°C° 0 mm 1 m/S 723 mmHg 57%
    17:00 +22°C° 0 mm 1 m/S 723 mmHg 64%
    18:00 +20°C° 0 mm 1 m/S 723 mmHg 72%
    19:00 +17°C° 0 mm 2 m/S 722 mmHg 79%
    20:00 +17°C° 0 mm 2 m/S 722 mmHg 78%
    21:00 +16°C° 0 mm 2 m/S 722 mmHg 78%
    22:00 +16°C° 0 mm 2 m/S 722 mmHg 77%
    23:00 +16°C° 0 mm 2 m/S 722 mmHg 77%

    22 September, Sonntag

    Zeit Temperatur Niederschläge Wind Luftdruck Luftfeuchtigkeit
    00:00 +15°C° 0 mm 2 m/S 722 mmHg 77%
    01:00 +15°C° 0 mm 2 m/S 722 mmHg 77%
    02:00 +15°C° 0 mm 2 m/S 721 mmHg 77%
    03:00 +15°C° 0 mm 2 m/S 721 mmHg 77%
    04:00 +15°C° 0 mm 2 m/S 721 mmHg 77%
    05:00 +15°C° 0 mm 2 m/S 721 mmHg 77%
    06:00 +15°C° 0 mm 1 m/S 721 mmHg 77%
    07:00 +16°C° 0 mm 1 m/S 721 mmHg 76%
    08:00 +19°C° 0 mm 1 m/S 721 mmHg 71%
    09:00 +21°C° 0 mm 1 m/S 721 mmHg 66%
    10:00 +23°C° 0 mm 1 m/S 721 mmHg 60%
    11:00 +24°C° 0 mm 1 m/S 721 mmHg 57%
    12:00 +26°C° 0 mm 1 m/S 720 mmHg 54%
    13:00 +27°C° 0 mm 1 m/S 720 mmHg 51%
    14:00 +26°C° 0.1 mm 1 m/S 720 mmHg 55%
    15:00 +26°C° 0.1 mm 1 m/S 719 mmHg 60%
    16:00 +25°C° 0.1 mm 1 m/S 719 mmHg 64%
    17:00 +23°C° 0.1 mm 1 m/S 718 mmHg 70%
    18:00 +21°C° 0.1 mm 1 m/S 718 mmHg 77%
    19:00 +18°C° 0.1 mm 2 m/S 718 mmHg 83%
    20:00 +18°C° 0.1 mm 2 m/S 719 mmHg 84%
    21:00 +17°C° 0.1 mm 3 m/S 719 mmHg 85%
    22:00 +17°C° 0.1 mm 3 m/S 719 mmHg 86%
    23:00 +16°C° 0.2 mm 3 m/S 720 mmHg 89%

    23 September, Montag

    Zeit Temperatur Niederschläge Wind Luftdruck Luftfeuchtigkeit
    00:00 +16°C° 0.2 mm 3 m/S 720 mmHg 91%
    01:00 +14°C° 0.2 mm 3 m/S 720 mmHg 94%
    02:00 +15°C° 1 mm 2 m/S 720 mmHg 95%
    03:00 +14°C° 1 mm 2 m/S 720 mmHg 95%
    04:00 +14°C° 1 mm 2 m/S 720 mmHg 96%
    05:00 +14°C° 1.1 mm 2 m/S 721 mmHg 95%
    06:00 +13°C° 1.1 mm 1 m/S 721 mmHg 95%
    07:00 +13°C° 1.1 mm 1 m/S 721 mmHg 94%
    08:00 +13°C° 0.8 mm 1 m/S 721 mmHg 94%
    09:00 +14°C° 0.8 mm 1 m/S 722 mmHg 93%
    10:00 +14°C° 0.8 mm 1 m/S 722 mmHg 93%
    11:00 +15°C° 0.3 mm 1 m/S 722 mmHg 88%
    12:00 +16°C° 0.3 mm 1 m/S 722 mmHg 83%
    13:00 +18°C° 0.3 mm 1 m/S 722 mmHg 79%
    14:00 +17°C° 0.2 mm 2 m/S 721 mmHg 76%
    15:00 +17°C° 0.2 mm 2 m/S 721 mmHg 74%
    16:00 +18°C° 0.2 mm 2 m/S 721 mmHg 72%
    17:00 +16°C° 0.2 mm 2 m/S 721 mmHg 78%
    18:00 +14°C° 0.2 mm 1 m/S 721 mmHg 83%
    19:00 +13°C° 0.2 mm 1 m/S 721 mmHg 89%
    20:00 +13°C° 0.3 mm 1 m/S 722 mmHg 89%
    21:00 +13°C° 0.3 mm 1 m/S 722 mmHg 90%
    22:00 +12°C° 0.3 mm 1 m/S 723 mmHg 91%
    23:00 +12°C° 0.1 mm 1 m/S 723 mmHg 91%

    24 September, Dienstag

    Zeit Temperatur Niederschläge Wind Luftdruck Luftfeuchtigkeit
    00:00 +12°C° 0.1 mm 1 m/S 723 mmHg 91%
    01:00 +12°C° 0.1 mm 1 m/S 723 mmHg 91%
    02:00 +12°C° 0.3 mm 1 m/S 723 mmHg 92%
    03:00 +12°C° 0.3 mm 1 m/S 723 mmHg 92%
    04:00 +12°C° 0.3 mm 1 m/S 723 mmHg 93%
    05:00 +12°C° 0.1 mm 1 m/S 723 mmHg 92%
    06:00 +12°C° 0.1 mm 1 m/S 723 mmHg 91%
    07:00 +13°C° 0.1 mm 1 m/S 723 mmHg 91%
    08:00 +14°C° 0 mm 1 m/S 723 mmHg 82%
    09:00 +16°C° 0 mm 1 m/S 723 mmHg 74%
    10:00 +19°C° 0 mm 1 m/S 723 mmHg 66%
    11:00 +20°C° 0 mm 1 m/S 723 mmHg 63%
    12:00 +21°C° 0 mm 1 m/S 723 mmHg 61%
    13:00 +21°C° 0 mm 1 m/S 722 mmHg 58%
    14:00 +21°C° 0 mm 1 m/S 722 mmHg 61%
    15:00 +21°C° 0 mm 1 m/S 722 mmHg 65%
    16:00 +21°C° 0 mm 1 m/S 722 mmHg 68%
    17:00 +19°C° 0 mm 1 m/S 721 mmHg 73%
    18:00 +18°C° 0 mm 1 m/S 721 mmHg 78%
    19:00 +16°C° 0 mm 1 m/S 721 mmHg 82%
    20:00 +16°C° 0 mm 1 m/S 721 mmHg 80%
    21:00 +16°C° 0 mm 1 m/S 722 mmHg 79%
    22:00 +18°C° 0 mm 1 m/S 722 mmHg 77%
    23:00 +16°C° 0.1 mm 1 m/S 721 mmHg 80%
    Mehr zeigen